User: anonymous   Login
Location: Newark
(43.0000°N, 1.6781°W)
Time: 10:02:43
(UTC+00:00)
Language:

EO-79 - Orbit

View from above orbital plane
View from above orbital plane
View from above satellite
View from above satellite

Ground track
Ground track

The orbit data is extracted from the following two-line orbital elements,

1 40025U 14033R   22329.80748752  .00002129  00000-0  21906-3 0  9996
2 40025  97.9758 268.6405 0010233 243.6573 116.3594 14.91375872457808
Epoch (UTC): 25 November 2022 19:22:46
Eccentricity: 0.0010233
inclination: 97.9758°
perigee height: 586 km
apogee height: 601 km
right ascension of ascending node: 268.6405°
argument of perigee: 243.6573°
revolutions per day: 14.91375872
mean anomaly at epoch: 116.3594°
orbit number at epoch: 45780

The dashed part of the orbit path shows where the satellite is in the earth's shadow,  

DLR